Flag for United Arab Emirates Weather past 2 weeks in Dubai, Dubai, United Arab Emirates

Now
99 °F

Clear.


Feels Like: 98 °F
Forecast: 92 / 100 °F
Wind: 3 mph from Southwest

Location: Dubai International Airport

Current Time: Jul 5, 2015 at 1:12:14 AM

Latest Report: Jul 5, 2015 at 1:00 AM


Visibility: 5 mi

Pressure: 29.53 "Hg

Humidity: 25%

Dew point: 57 °F

Location of DubaiLocation

Historic Weather in Dubai — Graph

°F

Dubai temperature yesterday

Maximum temperature yesterday: 111 °F (at 12:00 PM)
Minimum temperature yesterday: 97 °F (at 12:00 AM)
Average temperature yesterday: 102 °F

Past Weeks' High & Low Weather Summary

 TemperatureHumidityPressure
High113 °F (Jul 3, 1:00 PM)79% (Jun 30, 11:00 PM)29.65 "Hg (Jun 30, 11:00 PM)
Low84 °F (Jun 25, 6:00 AM)12% (Jul 3, 1:00 PM)29.36 "Hg (Jun 20, 3:00 PM)
Average95 °F46%29.51 "Hg
* Reported Midnight between Jun 19 and Jun 20 — Midnight between Jul 4 and Jul 5, Dubai, Weather by CustomWeather, © 2015

Note: Actual official high and low records may vary slightly from our data, if they occured in-between our weather recording intervals... More about our weather records

Advertising

Dubai weather history for previous 24 hours

 ConditionsComfort  
Time TempWeatherWind HumidityBarometerVisibility
12:00 AM
Sun, Jul 5
100 °FClear.3 mph25%29.56 "Hg5 mi
11:00 PM
Sat, Jul 4
102 °FClear.5 mph23%29.56 "Hg5 mi
10:00 PM102 °FClear.8 mph26%29.56 "Hg5 mi
9:00 PM102 °FClear.7 mph24%29.53 "Hg5 mi
8:00 PM102 °FClear.7 mph24%29.53 "Hg4 mi
7:00 PM102 °FClear.6 mph23%29.53 "Hg4 mi
6:00 PM102 °FClear.8 mph27%29.53 "Hg4 mi
5:00 PM100 °FDuststorm.14 mph35%29.53 "Hg3 mi
4:00 PM100 °FDuststorm.13 mph45%29.53 "Hg3 mi
3:00 PM106 °FDuststorm.16 mph32%29.53 "Hg3 mi
2:00 PM109 °FDuststorm.18 mph27%29.56 "Hg3 mi
1:00 PM111 °FDuststorm.14 mph15%29.56 "Hg2 mi
12:00 PM111 °FDuststorm.16 mph14%29.59 "Hg2 mi
11:00 AM109 °FDuststorm.15 mph16%29.59 "Hg2 mi
10:00 AM106 °FDuststorm.14 mph19%29.59 "Hg2 mi
9:00 AM102 °FDuststorm.13 mph24%29.59 "Hg2 mi
8:00 AM99 °FDuststorm.16 mph31%29.59 "Hg2 mi
7:00 AM97 °FClear.10 mph28%29.59 "Hg4 mi
6:00 AM99 °FPassing clouds.7 mph22%29.59 "HgN/A
5:00 AM99 °FPassing clouds.8 mph22%29.56 "HgN/A
4:00 AM100 °FPassing clouds.8 mph25%29.56 "HgN/A
3:00 AM99 °FPassing clouds.5 mph35%29.56 "HgN/A
2:00 AM99 °FClear.9 mph37%29.56 "Hg10 mi
1:00 AM99 °FClear.3 mph37%29.56 "Hg10 mi
Weather by CustomWeather, © 2015

See weather overviewHow to use our weather pages